Regional Weather Roundup
Issued by NWS Jackson, KY

Home | Current Version | Previous Version | Graphics & Text | Print | Product List | Glossary On
Versions: 1 2 3 4 5 6 7 8 9 10 11 12 13 14 15 16 17 18 19 20 21 22 23 24 25 26 27 28
000
ASUS43 KJKL 300910
RWRJKL

EAST KENTUCKY HOURLY WEATHER ROUNDUP
NATIONAL WEATHER SERVICE JACKSON KY
500 AM EDT MON MAY 30 2016

NOTE: "FAIR" INDICATES FEW OR NO CLOUDS BELOW 12,000 FEET WITH
NO SIGNIFICANT WEATHER AND/OR OBSTRUCTIONS TO VISIBILITY.

* THESE REPORTS ARE NOT UNDER NWS QUALITY CONTROL AND MAY NOT
  REPORT WEATHER SUCH AS PRECIPITATION AND FOG.

KYZ079-080-083-085-087-088-110-112-115-119-120-301000
...EASTERN KENTUCKY...

CITY           SKY/WX    TMP DP  RH WIND       PRES   REMARKS
JACKSON        MOCLDY    65  62  90 W3        30.08R
LONDON         PTCLDY    64  62  93 S3        30.06R
SOMERSET*      CLOUDY    66  66 100 CALM      30.06F
MONTICELLO*    CLOUDY    66  65  96 NE7       30.07S
WILLIAMSBURG*  MOSUNNY   61  61 100 CALM      30.07R
MIDDLESBORO*   FOG       60  60 100 CALM      30.08S VSB 3/4
HARLAN APT*    CLOUDY   N/A N/A N/A CALM      30.08S
BLACK MTN*       N/A     61  61 100 E1          N/A
PIKE CO APT*     N/A     64  64 100 CALM      30.06F FOG
MOREHEAD APT*  CLOUDY    64  63  94 SW3       30.04S
ASHLAND*       CLOUDY    64  63  94 E5        29.98F
$$

KYZ035-036-041-042-044-050-067-078-099-301000
...CENTRAL KENTUCKY...

CITY           SKY/WX    TMP DP  RH WIND       PRES   REMARKS
MT STERLING*   PTCLDY    64  64 100 SW3       30.05F
FLEMING/MASON* MOCLDY    63  63  99 W3        30.03F
DANVILLE*      PTCLDY    68  61  77 NW5       30.05S
RICHMOND*      PTCLDY    64  63  94 CALM      30.04F
LEXINGTON      PTCLDY    67  63  87 CALM      30.04S
FRANKFORT      CLOUDY    66  62  87 CALM      30.02F
LOUISVILLE     MOCLDY    69  61  75 CALM      30.02F
LEBANON*         N/A     66  61  82 CALM      30.04F
GLASGOW*       MOCLDY    65  65 100 CALM      30.04S
BOWLING GREEN  CLEAR     67  64  90 CALM      30.04S
$$

KYZ091>093-OHZ055-061-077-WVZ005-015-034-035-042-301000
...SOUTHERN OHIO/WEST VIRGINIA...

CITY           SKY/WX    TMP DP  RH WIND       PRES   REMARKS
COVINGTON      CLOUDY    66  64  93 S3        30.03F
COLUMBUS       MOCLDY    62  62 100 CALM      30.00F
DAYTON         CLOUDY    65  62  90 CALM      30.03F
WILMINGTON     MOCLDY    63  62  97 W6        30.03S
HUNTINGTON       N/A     65  61  87 CALM      30.00F
CHARLESTON     FOG       63  62  97 S3        30.04R VSB 1/4
PINEVILLE*     MOCLDY    57  55  90 MISG      30.12S FOG
BECKLEY          N/A     59  56  89 CALM      30.09S
BLUEFIELD        N/A     57  56  96 CALM      30.11S FOG
LOGAN CO APT*    N/A     64  63  94 CALM      30.06S
$$

VAZ002-007-008-TNZ017-027-036-066-071-301000
...SOUTHWEST VIRGINIA/EAST TENNESSEE...

CITY           SKY/WX    TMP DP  RH WIND       PRES   REMARKS
WISE*          FOG       61  61 100 CALM      30.11S VSB<1/4
JONESVILLE*    FOG       63  63 100 CALM      30.09S VSB 1/4
ABINGDON*        N/A     62  59  91 E6        30.09S
BRISTOL        PTCLDY    58  56  93 CALM      30.07S
SEVIERVILLE*   MOSUNNY   61  59  94 CALM      30.05S
KNOXVILLE      FOG       65  65 100 CALM      30.04S VSB 1/16
OAK RIDGE      FOG       64  63  96 CALM      30.05F VSB 3/4
CROSSVILLE     CLOUDY    63  59  87 CALM      30.08F FOG
NASHVILLE      PTCLDY    70  66  87 S3        30.04S
$$

...KEY TO REMARKS...
VSB - VISIBILITY IN MILES
WCI - WIND CHILL INDEX
HX  - HEAT INDEX

$$




USA.gov is the U.S. government's official web portal to all federal, state and local government web resources and services.